Hartford, CT

3:45 AM EST on November 21, 2017 (GMT -0500)
Hartford-brainard

Weather History for KHFD - December, 2013

Change the Weather History Date:

Tuesday, December 10, 2013

  Actual Average Record
Temperature  
Mean Temperature 30 °F -  
Max Temperature 34 °F 41 °F 67 °F (1946)
Min Temperature 25 °F 24 °F 2 °F (1949)
Degree Days  
Heating Degree Days 36    
Moisture  
Dew Point 30 °F    
Average Humidity 91    
Maximum Humidity 96    
Minimum Humidity 72    
Precipitation  
Precipitation 0.21 in - - ()
Sea Level Pressure  
Sea Level Pressure 29.92 in    
Wind  
Wind Speed 2 mph (SW)    
Max Wind Speed 10 mph    
Max Gust Speed -    
Visibility 2 miles    
Events Fog , Snow    
Averages and records for this station are not official NWS values.
T = Trace of Precipitation, MM = Missing Value Source: NWS Daily Summary

Daily Weather History Graph

Daily Weather History Graph

Search for Another Location

Airport or City:

Trip Planner

Search our weather history database for the weather conditions in past years. The results will help you decide how hot, cold, wet, or windy it might be!

Date:

Astronomy

Dec. 10, 2013 Rise Set
Actual Time 7:07 AM EST 4:19 PM EST
Civil Twilight 6:35 AM EST 4:51 PM EST
Nautical Twilight 6:00 AM EST 5:26 PM EST
Astronomical Twilight 5:26 AM EST 6:00 PM EST
Moon 12:24 PM EST (12/10) 12:17 AM EST (12/10)
Length of Visible Light 10h 15m
Length of Day
9h 12m
First Quarter, 61% of the Moon is Illuminated
Dec 10
First Quarter
Dec 17
Full
Dec 25
Last Quarter
Jan 1
New
Jan 7
First Quarter

Hourly Weather History & Observations

Time (EST) Temp. Windchill Dew Point Humidity Pressure Visibility Wind Dir Wind Speed Gust Speed Precip Events Conditions
12:21 AM 32.0 °F - 30.9 °F 96% 29.95 in 2.5 mi Calm Calm - N/A   Clear
12:46 AM 33.1 °F - 30.0 °F 89% 29.95 in 2.5 mi Calm Calm - N/A   Partly Cloudy
12:53 AM 32.0 °F - 30.0 °F 92% 29.95 in 2.0 mi Calm Calm - N/A   Partly Cloudy
12:58 AM 32.0 °F 28.7 °F 30.0 °F 92% 29.95 in 1.0 mi South 3.5 mph - N/A   Mist
1:07 AM 32.0 °F 28.7 °F 30.9 °F 96% 29.95 in 0.8 mi SSE 3.5 mph - N/A   Mist
1:12 AM 32.0 °F 28.7 °F 30.0 °F 92% 29.95 in 1.2 mi South 3.5 mph - N/A   Partly Cloudy
1:21 AM 32.0 °F - 30.9 °F 96% 29.95 in 2.5 mi Calm Calm - N/A   Clear
1:53 AM 32.0 °F - 30.0 °F 92% 29.95 in 0.8 mi Calm Calm - N/A   Clear
2:01 AM 28.9 °F - 28.0 °F 96% 29.95 in 0.2 mi Calm Calm - N/A Fog Light Freezing Fog
2:53 AM 30.0 °F 26.5 °F 28.9 °F 96% 29.96 in 0.5 mi WSW 3.5 mph - N/A Fog Light Freezing Fog
2:59 AM 32.0 °F - 30.0 °F 92% 29.95 in 1.2 mi Calm Calm - N/A   Partly Cloudy
3:12 AM 32.0 °F - 30.0 °F 92% 29.95 in 2.5 mi Calm Calm - N/A   Clear
3:21 AM 30.0 °F - 28.0 °F 92% 29.93 in 1.2 mi Calm Calm - N/A   Partly Cloudy
3:23 AM 30.0 °F 26.5 °F 28.9 °F 96% 29.93 in 0.8 mi SE 3.5 mph - N/A   Mist
3:35 AM 30.9 °F 27.5 °F 28.9 °F 92% 29.94 in 1.2 mi West 3.5 mph - N/A   Partly Cloudy
3:41 AM 32.0 °F - 30.9 °F 96% 29.92 in 3.0 mi Calm Calm - N/A   Partly Cloudy
3:53 AM 30.9 °F - 30.0 °F 96% 29.93 in 3.0 mi Calm Calm - N/A   Clear
4:00 AM 30.9 °F - 28.9 °F 92% 29.94 in 2.0 mi Calm Calm - N/A   Clear
4:13 AM 30.9 °F 26.2 °F 28.9 °F 92% 29.95 in 1.5 mi South 4.6 mph - N/A   Clear
4:23 AM 30.9 °F 24.3 °F 30.0 °F 96% 29.94 in 3.0 mi South 6.9 mph - N/A   Clear
4:53 AM 33.1 °F - 30.9 °F 92% 29.98 in 8.0 mi Calm Calm - N/A   Clear
5:53 AM 34.0 °F 28.8 °F 32.0 °F 92% 29.95 in 9.0 mi South 5.8 mph - N/A   Clear
6:53 AM 34.0 °F - 32.0 °F 92% 29.94 in 5.0 mi Calm Calm - N/A   Mostly Cloudy
7:53 AM 34.0 °F 31.0 °F 32.0 °F 92% 29.97 in 5.0 mi SSE 3.5 mph - N/A   Overcast
8:11 AM 34.0 °F - 32.0 °F 92% 29.97 in 1.8 mi Calm Calm - 0.00 in Snow Light Snow
8:30 AM 33.1 °F - 32.0 °F 96% 29.95 in 0.5 mi Calm Calm - 0.01 in Fog , Snow Snow
8:53 AM 33.1 °F - 32.0 °F 96% 29.95 in 0.2 mi Calm Calm - 0.04 in Fog , Snow Snow
9:05 AM 33.1 °F 30.0 °F 32.0 °F 96% 29.95 in 0.2 mi SSE 3.5 mph - 0.01 in Fog , Snow Snow
9:24 AM 33.1 °F 28.7 °F 32.0 °F 96% 29.95 in 0.5 mi SSE 4.6 mph - 0.02 in Fog , Snow Light Snow
9:26 AM 33.1 °F 28.7 °F 32.0 °F 96% 29.95 in 0.8 mi SSE 4.6 mph - 0.02 in Snow Light Snow
9:35 AM 33.1 °F 27.7 °F 32.0 °F 96% 29.95 in 0.8 mi South 5.8 mph - 0.02 in Snow Light Snow
9:53 AM 33.1 °F - 32.0 °F 96% 29.95 in 0.2 mi Calm Calm - 0.04 in Fog , Snow Snow
10:23 AM 33.1 °F - 32.0 °F 96% 29.92 in 0.5 mi Calm Calm - 0.03 in Fog , Snow Snow
10:36 AM 34.0 °F - 30.9 °F 89% 29.92 in 0.2 mi Calm Calm - 0.04 in Fog , Snow Snow
10:53 AM 33.1 °F 30.0 °F 32.0 °F 96% 29.91 in 0.5 mi SSE 3.5 mph - 0.04 in Fog , Snow Light Snow
11:00 AM 33.1 °F 30.0 °F 32.0 °F 96% 29.90 in 0.8 mi SSE 3.5 mph - 0.00 in Snow Light Snow
11:05 AM 33.1 °F - 32.0 °F 96% 29.90 in 1.0 mi Calm Calm - 0.00 in Snow Light Snow
11:26 AM 33.1 °F 30.0 °F 32.0 °F 96% 29.87 in 1.2 mi SE 3.5 mph - 0.00 in Snow Light Snow
11:53 AM 34.0 °F - 32.0 °F 92% 29.87 in 1.2 mi Calm Calm - 0.01 in Snow Light Snow
12:02 PM 34.0 °F - 32.0 °F 92% 29.86 in 2.0 mi Calm Calm - 0.00 in Snow Light Snow
12:09 PM 33.1 °F - 32.0 °F 96% 29.85 in 1.8 mi Calm Calm - 0.00 in Snow Light Snow
12:53 PM 34.0 °F - 32.0 °F 92% 29.84 in 0.8 mi Calm Calm - 0.01 in Snow Light Snow
1:14 PM 34.0 °F - 32.0 °F 92% 29.84 in 0.8 mi Calm Calm - 0.01 in Snow Light Snow
1:35 PM 34.0 °F - 32.0 °F 92% 29.84 in 1.0 mi Calm Calm - 0.02 in Snow Light Snow
1:44 PM 34.0 °F - 32.0 °F 92% 29.83 in 1.0 mi Calm Calm - 0.02 in Snow Light Snow
1:53 PM 34.0 °F - 32.0 °F 92% 29.84 in 1.2 mi Calm Calm - 0.03 in Snow Light Snow
2:19 PM 34.0 °F - 32.0 °F 92% 29.83 in 0.8 mi Calm Calm - 0.01 in Snow Light Snow
2:41 PM 34.0 °F 31.0 °F 30.9 °F 89% 29.83 in 0.8 mi West 3.5 mph - 0.01 in Snow Light Snow
2:53 PM 34.0 °F 31.0 °F 30.9 °F 89% 29.83 in 0.5 mi Variable 3.5 mph - 0.01 in Fog , Snow Snow
3:07 PM 34.0 °F 31.0 °F 30.9 °F 89% 29.84 in 0.8 mi WNW 3.5 mph - 0.01 in Snow Light Snow
3:19 PM 34.0 °F 29.8 °F 30.9 °F 89% 29.84 in 0.8 mi WNW 4.6 mph - 0.01 in Snow Light Snow
3:26 PM 34.0 °F 29.8 °F 30.9 °F 89% 29.85 in 1.0 mi WNW 4.6 mph - 0.01 in Snow Light Snow
3:53 PM 33.1 °F 26.9 °F 30.9 °F 92% 29.86 in 0.8 mi NNW 6.9 mph - 0.02 in Snow Light Snow
4:04 PM 33.1 °F 28.7 °F 30.0 °F 89% 29.87 in 0.8 mi WNW 4.6 mph - 0.00 in Snow Light Snow
4:12 PM 33.1 °F 27.7 °F 30.0 °F 89% 29.87 in 1.0 mi NW 5.8 mph - 0.00 in Snow Light Snow
4:29 PM 33.1 °F 30.0 °F 30.0 °F 89% 29.87 in 2.5 mi Variable 3.5 mph - 0.00 in Snow Light Snow
4:37 PM 33.1 °F 28.7 °F 28.9 °F 85% 29.87 in 4.0 mi WNW 4.6 mph - 0.00 in Snow Light Snow
4:53 PM 33.1 °F 27.7 °F 28.9 °F 85% 29.87 in 5.0 mi WNW 5.8 mph - 0.00 in Snow Light Snow
5:53 PM 33.1 °F 25.5 °F 27.0 °F 78% 29.91 in 10.0 mi NNW 9.2 mph - 0.01 in   Overcast
6:53 PM 32.0 °F 23.6 °F 24.1 °F 73% 29.94 in 7.0 mi NNW 10.4 mph - 0.00 in Snow Light Snow
7:05 PM 30.9 °F 24.3 °F 24.1 °F 76% 29.95 in 8.0 mi NNW 6.9 mph - 0.00 in   Overcast
7:53 PM 30.0 °F 24.1 °F 21.9 °F 72% 29.96 in 10.0 mi West 5.8 mph - 0.00 in   Mostly Cloudy
8:53 PM 28.9 °F 23.9 °F 23.0 °F 78% 29.99 in 8.0 mi West 4.6 mph - N/A   Clear
9:53 PM 28.0 °F - 21.9 °F 78% 30.01 in 7.0 mi Calm Calm - N/A   Mostly Cloudy
10:53 PM 25.0 °F 19.3 °F 23.0 °F 92% 30.04 in 4.0 mi SSE 4.6 mph - N/A   Partly Cloudy
11:53 PM 25.0 °F 19.3 °F 21.0 °F 85% 30.06 in 8.0 mi SSE 4.6 mph - N/A   Clear